User: anonymous   Login
Location: Unspecified
(0.0000°N, 0.0000°E)
Time: 09:15:48
(UTC+00:00)
Language:

PRISMA (TANGO) - Orbit

View from above orbital plane
View from above orbital plane
View from above satellite
View from above satellite

Ground track
Ground track

The orbit data is extracted from the following two-line orbital elements,

1 36827U 10028F   18109.90838803 +.00000046 +00000-0 +27003-4 0  9991
2 36827 098.4925 281.2851 0042423 196.0791 163.9055 14.42332247273069
Epoch (UTC): 19 April 2018 21:48:04
Eccentricity: 0.0042423
inclination: 98.4925°
perigee height: 720 km
apogee height: 781 km
right ascension of ascending node: 281.2851°
argument of perigee: 196.0791°
revolutions per day: 14.42332247
mean anomaly at epoch: 163.9055°
orbit number at epoch: 27306

The dashed part of the orbit path shows where the satellite is in the earth's shadow,  

DLR